TimeGMT,TemperatureF,Dew PointF,Humidity,Sea Level PressureIn,VisibilityMPH,Wind Direction,Wind SpeedMPH,Gust SpeedMPH,PrecipitationIn,Events,Conditions,WindDirDegrees,DateUTC
12:00 AM,42.8,37.4,81,30.15,6.2,WSW,20.7,-,N/A,,Mostly Cloudy,250,2012-10-27 23:00:00
12:30 AM,42.8,37.4,81,30.12,6.2,West,19.6,-,N/A,,Mostly Cloudy,260,2012-10-27 23:30:00
1:00 AM,44,37,69,30.14,19,WSW,17.9,,,,Partly Cloudy,250,2012-10-28 00:00:00
1:00 AM,44.6,37.4,76,30.12,6.2,WSW,18.4,-,N/A,,Mostly Cloudy,250,2012-10-28 00:00:00
1:30 AM,42.8,39.2,87,30.12,6.2,West,18.4,-,N/A,Rain,Light Rain,260,2012-10-28 00:30:00
1:00 AM,42.8,39.2,87,30.09,6.2,WSW,16.1,-,N/A,Rain,Light Rain,250,2012-10-28 01:00:00
1:30 AM,42.8,41.0,93,30.09,6.2,WSW,15.0,-,N/A,Rain,Light Rain,250,2012-10-28 01:30:00
2:00 AM,42.8,41.0,93,30.06,6.2,West,17.3,-,N/A,,Mostly Cloudy,260,2012-10-28 02:00:00
2:30 AM,42.8,41.0,93,30.06,6.2,West,19.6,-,N/A,,Mostly Cloudy,260,2012-10-28 02:30:00
3:00 AM,44.6,41.0,87,30.04,6.2,West,20.7,-,N/A,,Mostly Cloudy,260,2012-10-28 03:00:00
3:30 AM,44.6,42.8,93,30.04,6.2,WSW,16.1,-,N/A,,Mostly Cloudy,250,2012-10-28 03:30:00
4:00 AM,44.6,42.8,93,30.01,6.2,WSW,13.8,-,N/A,,Mostly Cloudy,250,2012-10-28 04:00:00
4:30 AM,44.6,42.8,93,30.01,6.2,WSW,16.1,-,N/A,,Mostly Cloudy,250,2012-10-28 04:30:00
5:00 AM,44.6,44.6,100,29.98,6.2,WSW,16.1,-,N/A,Rain,Light Rain,250,2012-10-28 05:00:00
5:30 AM,44.6,44.6,100,29.98,6.2,West,17.3,-,N/A,,Mostly Cloudy,260,2012-10-28 05:30:00
6:00 AM,46,44,89,29.98,8,WSW,17.9,,,Rain,Light Rain,250,2012-10-28 06:00:00
6:00 AM,46.4,44.6,93,29.98,6.2,WSW,17.3,-,N/A,,Mostly Cloudy,250,2012-10-28 06:00:00
6:30 AM,46.4,44.6,93,29.95,6.2,WSW,18.4,-,N/A,Rain,Light Rain,250,2012-10-28 06:30:00
7:00 AM,46.4,44.6,93,29.95,6.2,WSW,20.7,-,N/A,Rain,Light Rain,250,2012-10-28 07:00:00
7:30 AM,46.4,42.8,87,29.95,6.2,WSW,17.3,-,N/A,Rain,Light Rain,250,2012-10-28 07:30:00
8:00 AM,44.6,42.8,93,29.95,6.2,WSW,18.4,-,N/A,Rain,Light Rain,250,2012-10-28 08:00:00
8:30 AM,44.6,42.8,93,29.92,6.2,WSW,19.6,-,N/A,Rain,Light Rain,250,2012-10-28 08:30:00
9:00 AM,44.6,42.8,93,29.92,6.2,WSW,18.4,-,N/A,Rain,Light Rain,250,2012-10-28 09:00:00
9:30 AM,46.4,42.8,87,29.89,6.2,WSW,16.1,-,N/A,Rain,Light Rain,240,2012-10-28 09:30:00
10:00 AM,46.4,42.8,87,29.89,6.2,WSW,17.3,-,N/A,Rain,Light Rain,240,2012-10-28 10:00:00
10:30 AM,46.4,42.8,87,29.86,6.2,WSW,18.4,-,N/A,Rain,Light Rain,240,2012-10-28 10:30:00
11:00 AM,46.4,42.8,87,29.86,6.2,WSW,18.4,-,N/A,Rain,Light Rain,240,2012-10-28 11:00:00
11:30 AM,46.4,42.8,87,29.83,6.2,WSW,18.4,-,N/A,Rain,Light Rain,240,2012-10-28 11:30:00
12:00 PM,46,44,88,29.84,16,WSW,20.1,,,Rain,Light Rain,250,2012-10-28 12:00:00
12:00 PM,46.4,42.8,87,29.83,6.2,WSW,18.4,-,N/A,Rain,Light Rain,250,2012-10-28 12:00:00
12:30 PM,46.4,44.6,93,29.80,6.2,WSW,18.4,-,N/A,Rain,Light Rain,250,2012-10-28 12:30:00
1:00 PM,46.4,44.6,93,29.77,6.2,WSW,19.6,-,N/A,Rain,Light Rain,240,2012-10-28 13:00:00
1:30 PM,46.4,42.8,87,29.77,6.2,WSW,18.4,-,N/A,Rain,Light Rain,240,2012-10-28 13:30:00
2:00 PM,46.4,42.8,87,29.74,6.2,WSW,18.4,-,N/A,,Light Drizzle,240,2012-10-28 14:00:00
2:30 PM,46.4,42.8,87,29.74,6.2,WSW,18.4,-,N/A,,Light Drizzle,240,2012-10-28 14:30:00
3:00 PM,46.4,44.6,93,29.71,6.2,WSW,18.4,-,N/A,,Light Drizzle,240,2012-10-28 15:00:00
3:30 PM,46.4,44.6,93,29.71,6.2,WSW,17.3,-,N/A,,Mostly Cloudy,240,2012-10-28 15:30:00
4:00 PM,46.4,42.8,87,29.68,6.2,WSW,18.4,-,N/A,,Light Drizzle,240,2012-10-28 16:00:00
4:30 PM,46.4,42.8,87,29.68,6.2,SW,18.4,-,N/A,Rain,Light Rain,230,2012-10-28 16:30:00
5:00 PM,46.4,42.8,87,29.68,6.2,SW,19.6,31.1,N/A,Rain,Light Rain,230,2012-10-28 17:00:00
5:30 PM,46.4,42.8,87,29.68,6.2,SW,18.4,-,N/A,Rain,Light Rain,230,2012-10-28 17:30:00
6:00 PM,46,43,87,29.68,12,SW,17.9,,,Rain,Light Rain,230,2012-10-28 18:00:00
6:00 PM,46.4,42.8,87,29.65,6.2,SW,18.4,-,N/A,Rain,Light Rain,230,2012-10-28 18:00:00
6:30 PM,46.4,44.6,93,29.65,6.2,SW,21.9,-,N/A,Rain,Light Rain,230,2012-10-28 18:30:00
7:00 PM,46.4,44.6,93,29.65,6.2,WSW,20.7,-,N/A,Rain,Light Rain,240,2012-10-28 19:00:00
7:30 PM,46.4,44.6,93,29.65,6.2,WSW,19.6,-,N/A,Rain,Light Rain,240,2012-10-28 19:30:00
8:00 PM,46.4,44.6,93,29.65,6.2,WSW,18.4,-,N/A,Rain,Light Rain,240,2012-10-28 20:00:00
8:30 PM,46.4,42.8,87,29.65,6.2,WSW,17.3,-,N/A,Rain,Light Rain,240,2012-10-28 20:30:00
9:00 PM,46.4,42.8,87,29.65,6.2,WSW,16.1,-,N/A,Rain,Light Rain,240,2012-10-28 21:00:00
9:30 PM,44.6,42.8,93,29.65,6.2,WSW,15.0,-,N/A,,Mostly Cloudy,240,2012-10-28 21:30:00
10:00 PM,44.6,44.6,100,29.65,6.2,WSW,13.8,-,N/A,Rain,Light Rain,250,2012-10-28 22:00:00
10:30 PM,46.4,44.6,93,29.65,6.2,West,13.8,-,N/A,,Mostly Cloudy,260,2012-10-28 22:30:00